Weather History for Glendive, MT

Change the Weather History Date:

Tuesday, August 20, 2013

  Actual Average Record
Temperature  
Mean Temperature 74 °F -  
Max Temperature 91 °F 83 °F 93 °F (2008)
Min Temperature 57 °F 55 °F 44 °F (1997)
Cooling Degree Days 9    
Growing Degree Days 24 (Base 50)    
Moisture  
Dew Point 48 °F    
Average Humidity 41    
Maximum Humidity 67    
Minimum Humidity 20    
Precipitation  
Precipitation 0.00 in - - ()
Sea Level Pressure  
Sea Level Pressure 29.85 in    
Wind  
Wind Speed 8 mph (West)    
Max Wind Speed 20 mph    
Max Gust Speed 26 mph    
Visibility 10 miles    
Events      
Averages and records for this station are not official NWS values.
T = Trace of Precipitation, MM = Missing Value Source: NWS Daily Summary

Daily Weather History Graph

Daily Weather History Graph

Search for Another Location

Airport:

Trip Planner

Search our weather history database for the weather conditions in past years. The results will help you decide how hot, cold, wet, or windy it might be!

Date:

Astronomy

Aug. 20, 2013 Rise Set
Actual Time 6:03 AM MDT 8:01 PM MDT
Civil Twilight 5:30 AM MDT 8:33 PM MDT
Nautical Twilight 4:49 AM MDT 9:14 PM MDT
Astronomical Twilight 4:04 AM MDT 9:58 PM MDT
Moon 7:29 PM MDT (8/20) 5:38 AM MDT (8/20)
Length of Visible Light 15h 03m
Length of Day
13h 57m
Full, 100% of the Moon is Illuminated
Aug 20
Full
Aug 20
Full
Aug 28
Last Quarter
Sep 5
New
Sep 12
First Quarter

Hourly Weather History & Observations

Time (MDT) Temp. Dew Point Humidity Pressure Visibility Wind Dir Wind Speed Gust Speed Precip Events Conditions
12:15 AM 64.4 °F 46.4 °F 52% 29.84 in 10.0 mi ENE 4.6 mph - N/A   Clear
12:35 AM 64.4 °F 44.6 °F 49% - 10.0 mi East 3.5 mph - N/A   Clear
12:55 AM 62.6 °F 44.6 °F 52% - 10.0 mi Calm Calm - N/A   Clear
1:15 AM 60.8 °F 44.6 °F 55% 29.83 in 10.0 mi Calm Calm - N/A   Clear
1:35 AM 57.2 °F 44.6 °F 63% 29.83 in 10.0 mi West 4.6 mph - N/A   Clear
1:55 AM 57.2 °F 44.6 °F 63% - 10.0 mi WSW 6.9 mph - N/A   Clear
2:15 AM 60.8 °F 46.4 °F 59% 29.82 in 10.0 mi WSW 8.1 mph - N/A   Clear
2:35 AM 62.6 °F 46.4 °F 55% 29.83 in 10.0 mi WSW 5.8 mph - N/A   Clear
2:55 AM 64.4 °F 46.4 °F 52% 29.82 in 10.0 mi SSW 5.8 mph - N/A   Clear
3:15 AM 66.2 °F 46.4 °F 49% 29.81 in 10.0 mi SSW 4.6 mph - N/A   Clear
3:35 AM 62.6 °F 46.4 °F 55% 29.82 in 10.0 mi SW 8.1 mph - N/A   Clear
3:55 AM 62.6 °F 46.4 °F 55% 29.81 in 10.0 mi SW 8.1 mph - N/A   Clear
4:15 AM 64.4 °F 48.2 °F 56% 29.81 in 10.0 mi South 9.2 mph - N/A   Clear
4:35 AM 62.6 °F 48.2 °F 59% 29.81 in 10.0 mi South 8.1 mph - N/A   Clear
4:55 AM 62.6 °F 48.2 °F 59% 29.81 in 10.0 mi South 10.4 mph - N/A   Clear
5:15 AM 62.6 °F 48.2 °F 59% 29.81 in 10.0 mi SSW 9.2 mph - N/A   Clear
5:35 AM 60.8 °F 48.2 °F 63% 29.82 in 10.0 mi SSW 10.4 mph - N/A   Clear
5:55 AM 60.8 °F 46.4 °F 59% 29.83 in 10.0 mi SSW 4.6 mph - N/A   Clear
6:15 AM 59.0 °F 48.2 °F 67% 29.83 in 10.0 mi SSW 5.8 mph - N/A   Clear
6:35 AM 59.0 °F 48.2 °F 67% 29.84 in 10.0 mi SSW 5.8 mph - N/A   Clear
6:55 AM 60.8 °F 48.2 °F 63% 29.84 in 10.0 mi SW 5.8 mph - N/A   Clear
7:15 AM 62.6 °F 50.0 °F 63% 29.84 in 10.0 mi SW 5.8 mph - N/A   Clear
7:35 AM 66.2 °F 50.0 °F 56% 29.85 in 10.0 mi SSE 4.6 mph - N/A   Clear
7:55 AM 69.8 °F 51.8 °F 53% 29.85 in 10.0 mi West 5.8 mph - N/A   Clear
8:15 AM 73.4 °F 51.8 °F 47% 29.86 in 10.0 mi WNW 4.6 mph - N/A   Clear
8:35 AM 75.2 °F 51.8 °F 44% 29.87 in 10.0 mi NNW 5.8 mph - N/A   Clear
8:55 AM 78.8 °F 50.0 °F 36% 29.87 in 10.0 mi NW 9.2 mph - N/A   Clear
9:15 AM 78.8 °F 50.0 °F 36% 29.87 in 10.0 mi NW 12.7 mph 16.1 mph N/A   Clear
9:35 AM 80.6 °F 50.0 °F 34% 29.87 in 10.0 mi NW 17.3 mph - N/A   Clear
9:55 AM 82.4 °F 50.0 °F 32% 29.87 in 10.0 mi NW 16.1 mph 20.7 mph N/A   Clear
10:15 AM 82.4 °F 48.2 °F 30% 29.88 in 10.0 mi NW 15.0 mph 20.7 mph N/A   Clear
10:35 AM 84.2 °F 50.0 °F 30% - 10.0 mi NW 16.1 mph - N/A   Clear
10:55 AM 84.2 °F 50.0 °F 30% 29.88 in 10.0 mi NW 15.0 mph 19.6 mph N/A   Clear
11:15 AM 86.0 °F 50.0 °F 29% - 10.0 mi NW 16.1 mph - N/A   Clear
11:35 AM 87.8 °F 50.0 °F 27% - 10.0 mi NNW 17.3 mph 21.9 mph N/A   Clear
11:55 AM 87.8 °F 50.0 °F 27% 29.89 in 10.0 mi WNW 12.7 mph 23.0 mph N/A   Clear
12:15 PM 89.6 °F 48.2 °F 24% 29.88 in 10.0 mi NW 13.8 mph 20.7 mph N/A   Clear
12:35 PM 89.6 °F 48.2 °F 24% - 10.0 mi West 16.1 mph 24.2 mph N/A   Clear
12:55 PM 89.6 °F 46.4 °F 22% 29.88 in 10.0 mi NW 19.6 mph 23.0 mph N/A   Clear
1:15 PM 89.6 °F 46.4 °F 22% 29.88 in 10.0 mi WNW 17.3 mph 24.2 mph N/A   Clear
1:35 PM 89.6 °F 46.4 °F 22% 29.88 in 10.0 mi WNW 15.0 mph 26.5 mph N/A   Clear
1:55 PM 89.6 °F 46.4 °F 22% 29.88 in 10.0 mi NW 16.1 mph 24.2 mph N/A   Clear
2:15 PM 89.6 °F 46.4 °F 22% 29.88 in 10.0 mi West 19.6 mph 26.5 mph N/A   Clear
2:35 PM 89.6 °F 46.4 °F 22% 29.88 in 10.0 mi WNW 16.1 mph 21.9 mph N/A   Clear
2:55 PM 91.4 °F 44.6 °F 20% 29.88 in 10.0 mi West 13.8 mph 24.2 mph N/A   Clear
3:15 PM 89.6 °F 46.4 °F 22% 29.88 in 10.0 mi West 17.3 mph 20.7 mph N/A   Clear
3:35 PM 89.6 °F 46.4 °F 22% 29.87 in 10.0 mi WNW 13.8 mph - N/A   Clear
3:55 PM 91.4 °F 46.4 °F 21% 29.87 in 10.0 mi West 15.0 mph 19.6 mph N/A   Clear
4:15 PM 89.6 °F 46.4 °F 22% 29.87 in 10.0 mi NW 13.8 mph 19.6 mph N/A   Clear
4:35 PM 89.6 °F 44.6 °F 21% 29.87 in 10.0 mi WNW 10.4 mph 17.3 mph N/A   Clear
4:55 PM 89.6 °F 46.4 °F 22% 29.87 in 10.0 mi WNW 16.1 mph 19.6 mph N/A   Clear
5:15 PM 89.6 °F 46.4 °F 22% 29.87 in 10.0 mi West 11.5 mph 17.3 mph N/A   Clear